| time (UTC) | temp F | wind direction | speed MPH | gust MPH | rain 1hr in | rain 24hr in | rain mn in | humidity % | barometer mb |
| 20260507165524 | 59 | 357 | 6.0 | 14.0 | 0.00 | 0.00 | 0.00 | 42 | 1016.9 |
| 20260507164525 | 59 | 278 | 4.0 | 7.0 | 0.00 | 0.00 | 0.00 | 42 | 1016.9 |
| 20260507163545 | 57 | 7 | 5.0 | 10.0 | 0.00 | 0.00 | 0.00 | 43 | 1017.0 |
| 20260507162524 | 57 | 343 | 6.0 | 10.0 | 0.00 | 0.00 | 0.00 | 44 | 1017.0 |
| 20260507161545 | 59 | 326 | 5.0 | 12.0 | 0.00 | 0.00 | 0.00 | 42 | 1017.0 |
| 20260507160525 | 57 | 5 | 6.0 | 11.0 | 0.00 | 0.00 | 0.00 | 43 | 1017.0 |
| 20260507155526 | 59 | 327 | 5.0 | 9.0 | 0.00 | 0.00 | 0.00 | 42 | 1017.0 |
| 20260507154605 | 59 | 291 | 4.0 | 7.0 | 0.00 | 0.00 | 0.00 | 41 | 1017.0 |
| 20260507153524 | 58 | 6 | 5.0 | 16.0 | 0.00 | 0.00 | 0.00 | 42 | 1017.1 |
| 20260507152525 | 57 | 241 | 5.0 | 8.0 | 0.00 | 0.00 | 0.00 | 41 | 1017.1 |
| 20260507151525 | 57 | 296 | 5.0 | 10.0 | 0.00 | 0.00 | 0.00 | 41 | 1017.1 |
| 20260507150525 | 56 | 346 | 4.0 | 8.0 | 0.00 | 0.00 | 0.00 | 45 | 1017.0 |
| 20260507145525 | 57 | 9 | 5.0 | 11.0 | 0.00 | 0.00 | 0.00 | 44 | 1017.0 |
| 20260507144525 | 56 | 9 | 4.0 | 7.0 | 0.00 | 0.00 | 0.00 | 45 | 1017.0 |
| 20260507143524 | 55 | 350 | 5.0 | 8.0 | 0.00 | 0.00 | 0.00 | 46 | 1017.0 |
| 20260507142545 | 56 | 323 | 4.0 | 9.0 | 0.00 | 0.00 | 0.00 | 45 | 1017.0 |
| 20260507141525 | 55 | 346 | 5.0 | 8.0 | 0.00 | 0.00 | 0.00 | 44 | 1017.0 |
| 20260507140546 | 55 | 353 | 4.0 | 9.0 | 0.00 | 0.00 | 0.00 | 45 | 1016.9 |
| 20260507135525 | 55 | 321 | 5.0 | 8.0 | 0.00 | 0.00 | 0.00 | 45 | 1017.0 |
| 20260507134525 | 54 | 277 | 3.0 | 6.0 | 0.00 | 0.00 | 0.00 | 48 | 1016.9 |
| 20260507133525 | 55 | 235 | 3.0 | 5.0 | 0.00 | 0.00 | 0.00 | 51 | 1016.9 |
| 20260507132605 | 54 | 245 | 2.0 | 4.0 | 0.00 | 0.00 | 0.00 | 55 | 1017.0 |
| 20260507131525 | 54 | 288 | 2.0 | 4.0 | 0.00 | 0.00 | 0.00 | 57 | 1016.9 |
| 20260507130525 | 54 | 274 | 1.0 | 3.0 | 0.00 | 0.00 | 0.00 | 59 | 1016.9 |
| 20260507125525 | 52 | 271 | 1.0 | 3.0 | 0.00 | 0.00 | 0.00 | 62 | 1016.9 |
| 20260507124525 | 52 | 5 | 2.0 | 5.0 | 0.00 | 0.00 | 0.00 | 64 | 1016.9 |
| 20260507123525 | 49 | 257 | 0.0 | 2.0 | 0.00 | 0.00 | 0.00 | 73 | 1016.8 |
| 20260507122525 | 47 | 0.0 | 0.0 | 0.00 | 0.00 | 0.00 | 90 | 1016.8 | |
| 20260507121525 | 46 | 0.0 | 0.0 | 0.00 | 0.00 | 0.00 | 95 | 1016.8 | |
| 20260507120626 | 44 | 0.0 | 0.0 | 0.00 | 0.00 | 0.00 | 95 | 1016.7 | |
| 20260507115525 | 42 | 0.0 | 0.0 | 0.00 | 0.00 | 0.00 | 95 | 1016.7 | |
| 20260507114525 | 40 | 0.0 | 0.0 | 0.00 | 0.00 | 0.00 | 95 | 1016.7 | |
| 20260507113525 | 38 | 0.0 | 0.0 | 0.00 | 0.00 | 0.00 | 96 | 1016.7 | |
| 20260507112525 | 36 | 0.0 | 0.0 | 0.00 | 0.00 | 0.00 | 96 | 1016.7 | |
| 20260507111525 | 36 | 0.0 | 0.0 | 0.00 | 0.00 | 0.00 | 96 | 1016.6 | |
| 20260507110525 | 36 | 0.0 | 0.0 | 0.00 | 0.00 | 0.00 | 96 | 1016.7 | |
| 20260507105525 | 36 | 0.0 | 0.0 | 0.00 | 0.00 | 0.00 | 96 | 1016.6 | |
| 20260507104526 | 36 | 0.0 | 0.0 | 0.00 | 0.00 | 0.00 | 96 | 1016.5 | |
| 20260507103525 | 36 | 0.0 | 0.0 | 0.00 | 0.00 | 0.00 | 96 | 1016.4 | |
| 20260507102525 | 36 | 0.0 | 0.0 | 0.00 | 0.00 | 0.00 | 96 | 1016.3 | |
| 20260507101546 | 37 | 0.0 | 0.0 | 0.00 | 0.00 | 0.00 | 96 | 1016.3 | |
| 20260507100525 | 37 | 0.0 | 0.0 | 0.00 | 0.00 | 0.00 | 96 | 1016.2 | |
| 20260507095525 | 37 | 0.0 | 0.0 | 0.00 | 0.00 | 0.00 | 96 | 1016.3 | |
| 20260507094525 | 37 | 0.0 | 0.0 | 0.00 | 0.00 | 0.00 | 96 | 1016.3 | |
| 20260507093526 | 38 | 0.0 | 0.0 | 0.00 | 0.00 | 0.00 | 96 | 1016.2 | |
| 20260507092525 | 38 | 0.0 | 0.0 | 0.00 | 0.00 | 0.00 | 96 | 1016.3 | |
| 20260507091525 | 38 | 0.0 | 0.0 | 0.00 | 0.00 | 0.00 | 96 | 1016.3 | |
| 20260507090525 | 39 | 0.0 | 0.0 | 0.00 | 0.00 | 0.00 | 96 | 1016.3 | |
| 20260507085525 | 39 | 0.0 | 0.0 | 0.00 | 0.00 | 0.00 | 96 | 1016.2 | |
| 20260507084526 | 39 | 0.0 | 0.0 | 0.00 | 0.00 | 0.00 | 97 | 1016.2 | |
| 20260507083526 | 39 | 0.0 | 0.0 | 0.00 | 0.00 | 0.00 | 97 | 1016.1 | |
| 20260507082525 | 39 | 0.0 | 0.0 | 0.00 | 0.00 | 0.00 | 96 | 1015.9 | |
| 20260507081526 | 40 | 284 | 0.0 | 1.0 | 0.00 | 0.01 | 0.00 | 97 | 1015.9 |
| 20260507080526 | 40 | 0.0 | 0.0 | 0.00 | 0.01 | 0.00 | 96 | 1015.9 | |
| 20260507075546 | 40 | 344 | 0.0 | 2.0 | 0.00 | 0.01 | 0.00 | 97 | 1015.8 |
| 20260507074526 | 40 | 17 | 1.0 | 2.0 | 0.00 | 0.01 | 0.00 | 97 | 1015.8 |
| 20260507073525 | 40 | 7 | 0.0 | 3.0 | 0.00 | 0.01 | 0.00 | 97 | 1015.9 |
| 20260507072525 | 40 | 296 | 0.0 | 2.0 | 0.00 | 0.01 | 0.00 | 96 | 1015.9 |
| 20260507071607 | 40 | 0.0 | 0.0 | 0.00 | 0.01 | 0.00 | 96 | 1015.8 | |
| 20260507070525 | 40 | 0.0 | 0.0 | 0.00 | 0.01 | 0.00 | 96 | 1015.8 | |
| 20260507065525 | 40 | 0.0 | 0.0 | 0.00 | 0.03 | 0.00 | 96 | 1015.8 | |
| 20260507064606 | 40 | 0.0 | 0.0 | 0.00 | 0.03 | 0.00 | 96 | 1015.9 | |
| 20260507063545 | 40 | 0.0 | 0.0 | 0.00 | 0.05 | 0.00 | 96 | 1015.9 | |
| 20260507062526 | 40 | 0.0 | 0.0 | 0.00 | 0.06 | 0.00 | 96 | 1016.0 | |
| 20260507061626 | 40 | 0.0 | 0.0 | 0.00 | 0.09 | 0.00 | 95 | 1016.1 | |
| 20260507060525 | 40 | 0.0 | 0.0 | 0.00 | 0.09 | 0.00 | 95 | 1016.1 | |
| 20260507055526 | 40 | 0.0 | 0.0 | 0.00 | 0.09 | 0.00 | 95 | 1016.1 | |
| 20260507054526 | 40 | 0.0 | 0.0 | 0.00 | 0.09 | 0.00 | 95 | 1016.1 | |
| 20260507053525 | 41 | 0.0 | 0.0 | 0.00 | 0.09 | 0.00 | 95 | 1016.2 | |
| 20260507052526 | 41 | 0.0 | 0.0 | 0.00 | 0.10 | 0.00 | 95 | 1016.1 | |
| 20260507051525 | 41 | 0.0 | 0.0 | 0.00 | 0.11 | 0.00 | 94 | 1016.0 | |
| 20260507050526 | 41 | 0.0 | 0.0 | 0.00 | 0.13 | 0.00 | 94 | 1016.0 | |
| 20260507045546 | 42 | 0.0 | 0.0 | 0.00 | 0.14 | 0.00 | 94 | 1016.0 | |
| 20260507044526 | 42 | 0.0 | 0.0 | 0.00 | 0.15 | 0.00 | 94 | 1016.1 | |
| 20260507043525 | 42 | 0.0 | 0.0 | 0.00 | 0.17 | 0.00 | 93 | 1016.1 | |
| 20260507042526 | 42 | 0.0 | 0.0 | 0.00 | 0.20 | 0.00 | 93 | 1016.1 | |
| 20260507041526 | 42 | 0.0 | 0.0 | 0.00 | 0.24 | 0.00 | 93 | 1016.1 | |
| 20260507040526 | 42 | 0.0 | 0.0 | 0.00 | 0.30 | 0.00 | 92 | 1016.1 | |
| 20260507035526 | 43 | 0.0 | 0.0 | 0.00 | 0.36 | 0.36 | 92 | 1016.0 | |
| 20260507034526 | 43 | 0.0 | 0.0 | 0.00 | 0.38 | 0.36 | 92 | 1016.0 | |
| 20260507033526 | 43 | 0.0 | 0.0 | 0.00 | 0.40 | 0.36 | 91 | 1016.0 | |
| 20260507032526 | 43 | 0.0 | 0.0 | 0.00 | 0.43 | 0.36 | 90 | 1015.9 | |
| 20260507031526 | 44 | 0.0 | 0.0 | 0.00 | 0.45 | 0.36 | 89 | 1015.9 | |
| 20260507030546 | 44 | 0.0 | 0.0 | 0.00 | 0.51 | 0.36 | 89 | 1015.9 | |
| 20260507025526 | 44 | 0.0 | 0.0 | 0.00 | 0.55 | 0.36 | 86 | 1015.9 | |
| 20260507024525 | 44 | 0.0 | 0.0 | 0.00 | 0.57 | 0.36 | 85 | 1015.9 | |
| 20260507023526 | 45 | 0.0 | 0.0 | 0.00 | 0.57 | 0.36 | 85 | 1015.9 | |
| 20260507022526 | 45 | 0.0 | 0.0 | 0.00 | 0.58 | 0.36 | 85 | 1015.8 | |
| 20260507021526 | 46 | 0.0 | 0.0 | 0.00 | 0.59 | 0.36 | 85 | 1015.8 | |
| 20260507020526 | 46 | 0.0 | 0.0 | 0.00 | 0.61 | 0.36 | 83 | 1015.7 | |
| 20260507015526 | 47 | 0.0 | 0.0 | 0.00 | 0.62 | 0.36 | 82 | 1015.5 | |
| 20260507014526 | 47 | 0.0 | 0.0 | 0.00 | 0.63 | 0.36 | 80 | 1015.4 | |
| 20260507013606 | 48 | 0.0 | 0.0 | 0.00 | 0.65 | 0.36 | 78 | 1015.4 | |
| 20260507012526 | 49 | 0.0 | 0.0 | 0.00 | 0.69 | 0.36 | 76 | 1015.3 | |
| 20260507011526 | 49 | 0.0 | 0.0 | 0.00 | 0.71 | 0.36 | 74 | 1015.2 | |
| 20260507010526 | 50 | 0.0 | 0.0 | 0.00 | 0.77 | 0.36 | 72 | 1015.1 | |
| 20260507005526 | 51 | 0.0 | 0.0 | 0.00 | 0.82 | 0.36 | 69 | 1015.1 | |
| 20260507004526 | 52 | 0.0 | 0.0 | 0.00 | 0.86 | 0.36 | 68 | 1015.1 | |
| 20260507003526 | 53 | 0.0 | 0.0 | 0.00 | 0.87 | 0.36 | 66 | 1015.1 | |
| 20260507002526 | 53 | 353 | 0.0 | 2.0 | 0.00 | 0.89 | 0.36 | 65 | 1015.0 |
| 20260507001526 | 54 | 0.0 | 0.0 | 0.00 | 0.93 | 0.36 | 63 | 1014.9 | |
| 20260507000546 | 55 | 18 | 0.0 | 2.0 | 0.00 | 0.97 | 0.36 | 60 | 1014.7 |
| 20260506235526 | 56 | 350 | 2.0 | 5.0 | 0.00 | 1.00 | 0.36 | 58 | 1014.5 |
| 20260506234526 | 57 | 323 | 2.0 | 6.0 | 0.00 | 1.09 | 0.36 | 56 | 1014.5 |
| 20260506233526 | 57 | 9 | 3.0 | 4.0 | 0.00 | 1.13 | 0.36 | 56 | 1014.5 |
| 20260506232526 | 57 | 347 | 3.0 | 5.0 | 0.00 | 1.14 | 0.36 | 55 | 1014.6 |
| 20260506231546 | 57 | 40 | 1.0 | 3.0 | 0.00 | 1.16 | 0.36 | 55 | 1014.6 |
| 20260506230526 | 57 | 9 | 3.0 | 7.0 | 0.00 | 1.21 | 0.36 | 54 | 1014.4 |
| 20260506225526 | 58 | 352 | 4.0 | 8.0 | 0.00 | 1.26 | 0.36 | 52 | 1014.3 |
| 20260506224526 | 58 | 356 | 3.0 | 7.0 | 0.00 | 1.27 | 0.36 | 55 | 1014.3 |
| 20260506223526 | 59 | 1 | 2.0 | 4.0 | 0.00 | 1.27 | 0.36 | 54 | 1014.6 |
| 20260506222526 | 59 | 2 | 4.0 | 8.0 | 0.00 | 1.28 | 0.36 | 54 | 1014.5 |
| 20260506221526 | 60 | 311 | 2.0 | 5.0 | 0.00 | 1.29 | 0.36 | 52 | 1014.5 |
| 20260506220526 | 60 | 244 | 4.0 | 7.0 | 0.00 | 1.31 | 0.36 | 50 | 1014.7 |
| 20260506215527 | 61 | 292 | 2.0 | 6.0 | 0.00 | 1.33 | 0.36 | 50 | 1014.7 |
| 20260506214526 | 60 | 294 | 3.0 | 7.0 | 0.00 | 1.36 | 0.36 | 52 | 1014.7 |
| 20260506213526 | 59 | 321 | 3.0 | 6.0 | 0.00 | 1.39 | 0.36 | 50 | 1014.8 |
| 20260506212526 | 59 | 330 | 3.0 | 6.0 | 0.00 | 1.43 | 0.36 | 51 | 1014.7 |
| 20260506211526 | 59 | 336 | 3.0 | 5.0 | 0.00 | 1.49 | 0.36 | 51 | 1014.6 |
| 20260506210527 | 60 | 358 | 4.0 | 7.0 | 0.00 | 1.52 | 0.36 | 50 | 1014.6 |
| 20260506205526 | 61 | 360 | 4.0 | 8.0 | 0.00 | 1.55 | 0.36 | 49 | 1014.5 |
| 20260506204527 | 61 | 332 | 3.0 | 6.0 | 0.00 | 1.55 | 0.36 | 51 | 1014.4 |
| 20260506203526 | 60 | 11 | 3.0 | 7.0 | 0.00 | 1.55 | 0.36 | 54 | 1014.4 |
| 20260506202526 | 60 | 348 | 3.0 | 6.0 | 0.00 | 1.55 | 0.36 | 55 | 1014.4 |
| 20260506201547 | 60 | 296 | 2.0 | 5.0 | 0.00 | 1.55 | 0.36 | 52 | 1014.4 |
| 20260506200547 | 59 | 8 | 2.0 | 5.0 | 0.00 | 1.55 | 0.36 | 52 | 1014.5 |
| 20260506195526 | 59 | 4 | 3.0 | 6.0 | 0.00 | 1.55 | 0.36 | 52 | 1014.6 |
| 20260506194527 | 59 | 246 | 4.0 | 6.0 | 0.00 | 1.55 | 0.36 | 53 | 1014.6 |
| 20260506193526 | 59 | 34 | 2.0 | 4.0 | 0.00 | 1.55 | 0.36 | 55 | 1014.5 |
| 20260506192527 | 59 | 347 | 3.0 | 6.0 | 0.00 | 1.56 | 0.36 | 55 | 1014.6 |
| 20260506191527 | 60 | 277 | 4.0 | 8.0 | 0.00 | 1.57 | 0.36 | 54 | 1014.5 |
| 20260506190547 | 61 | 351 | 3.0 | 4.0 | 0.00 | 1.58 | 0.36 | 54 | 1014.4 |
| 20260506185547 | 60 | 317 | 2.0 | 6.0 | 0.00 | 1.61 | 0.36 | 57 | 1014.3 |
| 20260506184527 | 59 | 7 | 4.0 | 6.0 | 0.00 | 1.62 | 0.36 | 55 | 1014.3 |
| 20260506183527 | 59 | 255 | 4.0 | 9.0 | 0.00 | 1.63 | 0.36 | 55 | 1014.3 |
| 20260506182527 | 58 | 15 | 5.0 | 7.0 | 0.00 | 1.65 | 0.36 | 56 | 1014.3 |
| 20260506181527 | 58 | 290 | 2.0 | 4.0 | 0.00 | 1.67 | 0.36 | 57 | 1014.5 |
| 20260506180527 | 58 | 25 | 2.0 | 4.0 | 0.00 | 1.67 | 0.36 | 56 | 1014.4 |
| 20260506175527 | 58 | 7 | 2.0 | 4.0 | 0.00 | 1.67 | 0.36 | 53 | 1014.5 |
| 20260506174527 | 58 | 351 | 3.0 | 6.0 | 0.00 | 1.73 | 0.36 | 54 | 1014.6 |
| 20260506173608 | 57 | 15 | 5.0 | 9.0 | 0.00 | 1.74 | 0.36 | 56 | 1014.6 |
| 20260506172547 | 58 | 360 | 3.0 | 7.0 | 0.00 | 1.74 | 0.36 | 53 | 1014.8 |
| 20260506171547 | 59 | 357 | 3.0 | 6.0 | 0.00 | 1.74 | 0.36 | 52 | 1014.8 |
| 20260506170547 | 60 | 239 | 3.0 | 5.0 | 0.00 | 1.74 | 0.36 | 51 | 1014.9 |